SCP
0 0 0 0 0 0 0 0 0 0 0 0 0 0 0 0 0 0 0 0 0 0 0 0 0 0 0 1 1 1 2 2 2 2 2 1 1 1 1 1 1 1 1 0
0 0 0 0 0 0 0 0 0 0 0 0 0 0 0 0 0 0 0 0 0 0 0 0 0 0 0 1 1 1 1 2 2 2 2 1 1 1 1 1 1 1 1 1
0 0 0 0 0 0 0 0 0 0 0 0 0 0 0 0 0 0 0 0 0 0 0 0 0 0 0 1 1 1 1 1 1 2 2 1 1 1 1 1 0 0 0 1
0 0 0 0 0 0 0 0 0 0 0 0 0 0 0 0 0 0 0 0 0 0 0 0 0 0 1 2 2 2 1 1 1 1 1 1 1 1 0 0 0 0 0 0
0 0 0 0 0 0 0 0 0 0 0 0 0 0 0 0 0 0 0 0 0 0 0 0 0 1 2 2 2 1 1 1 1 1 1 1 1 1 0 0 0 0 0 0
0 0 0 0 0 0 0 0 0 0 0 0 0 0 0 0 0 0 0 0 0 0 0 1 1 1 2 2 1 1 1 0 0 1 1 1 1 1 0 0 0 0 0 0
0 0 0 0 0 0 0 0 0 0 0 0 0 0 0 0 0 0 0 0 0 0 0 1 1 1 1 1 1 1 1 0 0 0 1 1 1 1 0 0 0 0 0 0
0 0 0 0 0 0 0 0 0 0 0 0 0 0 0 0 0 0 0 0 0 0 0 0 1 1 1 1 1 1 0 0 0 0 1 1 1 1 0 0 0 0 0 0
0 0 0 0 0 0 0 0 0 0 0 0 0 0 0 0 0 0 0 0 0 0 0 0 0 0 0 0 0 0 0 0 0 0 1 1 1 1 0 0 0 0 0 0
0 0 0 0 0 0 0 0 0 0 0 0 0 0 0 0 0 0 0 0 0 0 0 0 0 0 0 0 0 0 0 0 0 0 1 1 1 1 0 0 0 0 0 0
0 0 0 0 0 0 0 0 0 0 0 0 0 0 0 0 0 0 0 0 0 0 0 0 0 0 0 0 0 0 0 0 0 0 1 1 1 1 0 0 0 0 0 0
0 0 0 0 0 0 0 0 0 0 0 0 0 0 0 0 0 0 0 0 0 0 0 0 0 0 0 0 0 0 0 0 0 0 1 1 1 0 0 0 0 0 0 0
0 0 0 0 0 0 0 0 0 0 0 0 0 0 0 0 0 0 0 0 0 0 0 0 0 0 0 0 0 0 0 0 0 0 0 0 0 0 0 0 0 0 0 0
0 0 0 0 0 0 0 0 0 0 0 0 0 0 0 0 0 0 0 0 0 0 0 0 0 0 0 0 0 0 0 0 0 1 1 0 0 0 0 0 0 0 0 0
0 0 0 0 0 0 0 0 0 0 0 0 0 0 0 0 0 0 0 0 0 0 -0 0 0 0 0 0 0 0 0 0 1 1 1 0 0 0 0 0 0 0 0 0
0 0 0 0 0 0 0 0 0 0 0 0 0 0 0 0 0 0 0 0 -0 -0 0 0 0 0 0 0 0 0 0 0 1 1 0 0 0 0 0 0 0 0 0 0
0 0 0 0 0 0 0 0 0 0 0 0 0 0 0 0 0 0 0 0 -0 -0 0 0 0 0 0 0 0 0 0 0 0 0 0 0 0 0 0 0 0 0 0 0
0 0 0 0 0 0 0 0 0 0 0 0 0 0 0 0 0 0 0 0 0 0 0 0 0 0 0 0 0 0 0 0 0 0 0 0 0 0 0 0 0 0 0 0
0 0 0 0 0 0 0 0 0 0 0 0 0 0 0 0 0 0 0 0 0 0 0 0 0 0 0 0 0 0 0 0 0 0 0 0 0 0 0 0 0 0 0 0
0 0 0 0 0 0 0 0 0 0 0 0 0 0 0 0 0 0 0 0 0 0 0 0 0 0 0 0 0 0 0 0 0 0 0 0 0 0 0 0 0 0 0 0
0 0 0 0 0 0 0 0 0 0 0 0 0 0 0 0 0 0 0 0 0 0 0 0 0 0 0 0 0 0 0 0 0 0 0 0 0 0 0 0 0 0 0 0
0 0 0 0 0 0 0 0 0 0 0 0 0 0 0 0 0 0 0 0 0 0 0 0 0 0 0 0 0 0 0 0 0 0 0 0 0 0 0 0 0 0 0 0
0 0 0 0 0 0 0 0 0 0 0 0 0 0 0 0 0 0 0 0 0 0 0 0 0 0 0 0 0 0 0 0 0 0 0 0 0 0 0 0 0 0 0 0
0 0 0 0 0 0 0 0 0 0 0 0 0 0 0 0 0 0 0 0 0 0 0 0 0 0 0 0 0 0 0 0 0 0 0 0 0 0 0 0 0 0 0 0
0 0 0 0 0 0 0 0 0 0 0 0 0 0 0 0 0 0 0 0 0 0 0 0 0 0 0 0 0 0 0 0 0 0 0 0 0 0 0 0 0 0 0 0
0 0 0 0 0 0 0 0 0 0 0 0 0 0 0 0 0 0 0 0 0 0 0 0 0 0 0 0 0 0 0 0 0 0 0 0 0 0 0 0 0 0 0 0
0 0 0 0 0 0 0 0 0 0 0 0 0 0 0 0 0 0 0 0 0 0 0 0 0 0 0 0 0 0 0 0 0 0 0 0 0 0 0 0 0 0 0 0
Wind_Speed
11 12 10 12 13 11 11 10 11 11 13 15 12 11 10 10 10 11 11 10 8 7 5 4 4 4 5 6 7 9 10 11 13 12 11 11 11 11 12 12 12 12 12 11
9 9 10 15 16 14 14 12 14 15 17 11 9 7 7 8 8 10 11 10 10 8 7 5 5 4 4 6 7 8 10 11 10 10 11 12 12 12 12 12 11 12 12 12
7 6 7 10 9 10 8 7 8 12 12 8 8 9 7 6 7 9 10 10 10 8 7 6 5 4 4 6 6 8 9 9 10 11 12 12 12 12 12 12 12 12 12 12
5 4 8 8 3 5 8 9 8 9 9 8 9 8 5 4 5 8 9 9 9 8 7 6 5 4 3 4 6 8 8 8 9 10 11 11 12 13 12 10 11 11 11 12
3 5 10 8 4 3 5 7 6 8 9 8 7 5 4 4 5 7 8 8 8 7 6 6 4 3 2 4 5 7 8 9 10 11 11 12 12 12 10 10 10 9 11 12
4 5 8 6 4 3 2 6 4 4 7 6 5 5 7 8 8 9 9 8 7 6 4 4 4 2 2 4 5 7 8 8 9 10 11 12 12 11 9 9 9 9 9 10
8 8 10 7 5 1 1 6 5 4 6 5 3 6 8 9 9 9 8 8 6 5 4 4 3 1 2 3 5 5 5 6 8 9 10 11 10 9 10 9 10 9 9 8
5 7 11 3 1 3 6 5 5 6 6 6 7 8 8 8 9 10 9 8 6 5 5 5 2 1 1 2 2 4 5 6 7 8 8 9 11 10 10 11 11 10 9 8
8 9 6 3 5 6 4 5 6 6 7 7 8 8 9 9 9 9 9 8 6 5 5 5 3 1 2 2 2 4 6 7 7 8 8 10 11 12 10 10 9 9 9 9
7 10 8 7 6 6 6 7 8 8 8 7 9 9 9 9 9 9 9 7 6 5 5 5 3 2 2 2 3 4 6 7 7 8 8 8 8 9 9 10 9 9 9 9
9 9 8 7 7 7 8 8 9 9 8 7 8 9 9 9 9 9 8 7 5 5 5 5 3 3 2 3 4 5 6 7 7 7 8 8 7 6 8 7 10 12 10 11
10 8 7 8 7 8 9 9 9 9 10 9 8 10 10 9 8 8 8 7 6 6 5 5 3 3 3 3 4 6 6 7 6 6 6 7 7 6 6 7 10 11 12 12
12 9 9 10 10 8 9 10 10 9 10 11 10 9 9 9 8 8 8 7 7 7 6 5 4 4 3 3 4 5 6 6 6 6 6 7 7 8 7 7 9 11 15 16
9 7 9 9 9 9 9 10 9 9 9 9 9 8 8 8 8 8 9 8 7 7 6 4 4 5 3 3 4 5 6 6 6 6 6 7 7 7 8 9 8 6 9 16
7 7 9 9 8 8 8 7 8 9 9 9 7 8 8 8 9 9 8 7 6 6 5 4 4 4 3 4 5 6 6 5 6 6 6 6 7 7 8 9 8 8 8 10
6 5 6 7 8 9 8 8 8 9 9 9 8 8 8 9 9 9 7 5 5 6 5 4 5 4 3 4 5 5 5 8 7 6 7 7 7 8 8 9 9 9 9 9
4 5 5 7 8 9 8 8 8 9 9 9 9 9 9 9 9 8 7 6 6 6 5 5 5 3 3 4 5 4 5 7 9 7 6 7 8 8 8 9 9 9 8 10
6 7 7 7 8 9 9 8 8 8 9 9 9 9 9 9 9 9 8 7 6 5 5 4 4 3 3 4 4 4 5 6 6 7 7 7 7 7 8 9 10 10 8 10
3 4 6 7 7 8 9 9 9 9 9 9 9 9 9 9 9 8 7 7 6 6 5 3 4 3 3 4 4 4 6 7 7 7 7 10 8 7 8 9 9 9 10 9
5 6 7 8 8 8 9 9 9 9 8 8 9 9 9 9 7 7 7 8 7 5 5 4 3 3 3 4 4 4 6 8 8 8 7 8 8 8 8 9 9 10 9 9
7 8 8 8 9 9 9 9 9 10 10 8 9 10 10 9 7 7 7 8 6 4 4 6 4 3 3 4 5 5 6 7 8 8 8 8 8 8 9 9 9 9 9 9
6 7 8 9 9 10 9 8 9 10 11 10 10 10 9 9 8 7 8 7 6 6 5 4 3 5 5 5 4 5 6 7 7 7 8 8 9 9 9 10 10 9 9 9
7 8 9 9 10 10 10 9 9 10 10 10 10 10 9 8 6 6 8 5 4 6 5 4 5 7 7 5 4 6 7 8 7 7 8 8 8 9 9 10 9 10 10 10
8 8 9 9 9 10 11 10 9 9 9 10 10 10 9 7 6 6 6 8 8 8 5 5 7 8 7 4 5 6 6 7 7 7 7 8 8 8 9 9 9 9 10 11
8 8 9 9 9 8 10 10 9 9 8 7 8 8 7 6 6 6 5 5 7 7 4 5 8 8 5 4 5 6 6 6 7 8 8 8 9 9 9 9 9 10 10 10
8 7 8 8 8 8 7 7 7 7 7 7 7 6 5 4 5 5 5 4 5 5 4 3 4 5 4 5 5 6 6 7 8 7 8 9 9 9 9 9 11 9 9 9
8 7 7 7 7 7 7 7 7 7 7 7 8 6 5 4 4 4 4 3 3 3 2 2 3 3 4 4 5 5 5 6 6 7 8 8 8 9 9 11 9 9 9 10
Wind_Direction
258 265 264 263 269 264 247 242 249 262 270 283 301 308 315 323 331 337 338 338 333 324 314 305 289 253 214 205 194 182 180 184 188 186 182 177 176 177 176 176 177 174 173 174
275 267 266 268 263 257 252 248 250 265 273 276 286 300 310 320 329 331 331 333 331 327 322 312 298 272 228 204 192 181 181 185 178 172 172 174 175 173 171 173 171 169 172 173
276 299 300 266 247 240 241 237 237 253 266 295 301 306 306 309 318 318 321 326 327 319 313 308 297 276 236 205 186 180 179 177 172 170 172 174 170 170 172 172 169 170 172 172
279 318 260 251 243 237 244 252 247 260 278 290 290 292 286 289 309 315 319 323 321 315 313 313 304 286 240 193 178 175 172 172 172 171 171 169 169 173 171 167 169 170 170 170
250 264 273 283 275 244 245 267 261 260 279 294 306 309 290 302 311 305 305 309 306 302 301 308 306 289 209 180 173 174 176 176 174 171 169 168 171 172 164 161 163 165 166 165
230 251 259 268 289 293 265 274 293 287 295 307 335 319 300 314 313 310 311 312 311 313 316 319 310 287 179 174 175 184 186 180 173 170 169 170 169 163 156 156 157 154 157 161
233 246 264 269 292 9 197 270 308 300 300 310 282 264 289 307 309 308 310 312 317 322 320 310 301 268 190 182 194 190 175 167 166 167 167 163 157 153 151 147 145 147 147 149
214 230 252 266 200 208 244 279 291 291 290 290 286 290 299 303 305 310 314 317 317 320 316 313 305 250 218 213 198 168 160 160 162 159 155 152 148 148 148 146 146 146 142 140
212 231 254 239 233 254 265 277 282 282 284 289 292 294 300 302 304 307 307 306 304 303 308 313 312 274 243 240 161 157 157 159 156 151 151 153 152 151 149 150 151 151 150 149
252 259 265 268 268 274 274 275 285 287 288 296 293 293 298 300 301 302 304 298 295 297 298 301 312 302 247 213 168 158 160 159 154 151 151 152 151 154 156 159 157 156 156 153
252 267 281 269 257 268 281 284 287 289 285 284 289 290 290 292 294 296 299 290 280 274 277 281 293 296 255 196 166 163 160 158 156 153 151 149 148 154 159 166 168 164 164 159
246 244 249 269 273 278 282 283 285 288 290 287 281 287 288 286 286 288 291 286 279 273 270 272 277 275 254 199 171 168 164 160 157 153 149 146 138 118 109 138 149 154 153 151
249 265 263 271 277 276 276 282 285 282 282 289 290 285 284 283 286 286 287 283 275 270 265 261 262 262 242 201 177 177 170 163 156 155 152 150 147 143 132 112 120 140 147 148
252 264 272 273 277 284 281 282 284 283 283 283 287 290 289 288 291 289 284 281 277 271 264 255 252 254 234 188 174 174 165 161 160 159 156 154 152 151 148 145 142 132 138 147
255 245 255 276 285 291 292 293 293 293 294 295 295 296 297 297 295 291 289 288 284 272 263 255 252 250 222 182 173 172 167 163 159 155 152 151 149 146 143 142 141 137 130 139
275 275 270 276 284 293 298 299 295 295 298 298 300 301 300 298 294 291 290 290 282 273 264 255 250 245 212 183 174 173 170 168 165 155 149 151 151 149 149 148 146 148 151 149
276 285 285 289 289 292 292 291 292 295 299 300 301 302 302 301 298 293 292 289 280 273 263 253 250 239 210 189 177 174 165 161 161 157 156 156 154 155 154 153 153 153 153 158
244 258 267 275 284 292 295 294 293 295 295 295 298 299 298 295 293 294 297 300 296 289 271 251 242 225 208 195 179 171 167 165 162 158 154 153 153 154 154 152 152 149 144 153
276 279 286 288 288 287 288 291 292 290 290 293 294 292 289 285 285 290 296 295 288 284 278 243 233 223 211 203 191 170 163 158 153 151 150 153 152 153 154 153 153 151 151 152
302 299 296 294 291 287 287 290 292 291 289 288 288 289 286 283 284 285 284 277 267 265 267 253 232 218 210 200 194 172 164 161 157 154 153 155 156 158 156 153 153 153 154 154
301 300 298 296 294 290 286 287 288 288 290 288 284 283 283 283 280 278 278 279 279 263 253 247 231 214 207 201 191 173 165 162 161 160 159 158 157 157 157 156 155 154 153 152
295 295 295 295 294 291 289 286 284 285 287 286 283 279 278 279 278 275 267 264 270 269 262 239 220 214 214 208 184 169 164 162 161 160 161 161 160 161 161 158 156 154 152 151
290 290 292 291 290 289 289 286 284 284 282 281 281 278 274 272 271 271 277 271 257 262 259 237 223 218 215 196 174 169 166 165 164 164 164 164 163 161 158 157 156 153 152 151
290 291 292 292 292 290 289 290 286 283 280 280 277 274 271 272 271 259 259 267 267 267 256 237 228 218 206 185 169 168 167 166 164 163 161 159 156 154 154 154 152 150 150 149
288 288 290 292 290 286 286 291 291 287 284 281 278 273 266 258 260 265 263 255 253 259 250 227 222 212 197 174 171 169 166 166 163 158 156 155 154 153 153 152 151 150 151 152
285 285 283 280 280 283 286 287 286 286 288 288 287 282 273 263 257 258 259 252 239 245 242 224 205 193 178 165 162 158 155 155 157 157 154 152 151 151 150 149 147 150 150 148
284 283 284 286 286 285 284 282 281 282 283 283 285 286 279 271 263 256 252 249 238 229 217 200 181 167 157 154 151 148 146 146 148 148 149 148 149 149 149 147 147 146 146 147